METEOR 2-8 DEB

Satellite information

Favourite Embed

Satellite Type and Status

DEBRISIN ORBIT

Key statistics

Satellite METEOR 2-8 DEB at a glance.

Uptime

15750

Days in orbit

Revolutions

≈ 14.3

Per day

Orbit

LEO

Low Earth Orbit

Inclination

82.5

Latest

Satellite identification and parameters

Extended collection of information and parameters for METEOR 2-8 DEB.

Object identification

Identified? True

Debris? True

Object name: METEOR 2-8 DEB

International designator: 1982-025AR

Object number (NORAD): 36355

Object ID (CCSDS): 36355

Country: COMMONWEALTH OF INDEPENDENT STATES (CIS)

Current information (Y/N): Y

RCS size: SMALL

Orbital parameters

Period: 100.58 minutes

Inclination: 82.5163 deg

SMA: 7164.207 km

Apoapsis: 799.323 km

Periapsis: 772.821 km

RAAN: 161.784 deg

Eccentricy: 0.0018496

Argument of periapsis: 179.5801 deg

Mean anomaly: 180.5404 deg

Mean motion: 14.31695243 rev/day

Mean motion (dot): 0.00009736 rev/day2

B* drag term: 0.0036361 1/REarth

Two-line elements (TLE)

Creation date: May 2, 2025, 5:35 p.m.

Reference frame: TEME

Reference center: EARTH

Epoch: May 2, 2025, 9:48 a.m. UTC

TLE line 0: 0 METEOR 2-8 DEB

TLE line 1: 1 36355U 82025AR 25122.40843727 .00009736 00000-0 36361-2 0 9992

TLE line 2: 2 36355 82.5163 161.7840 0018496 179.5801 180.5404 14.31695243153015

Live tracking on map

Real-time ground track for satellite METEOR 2-8 DEB.

In-orbit conjunctions

A list of the most updated potential collisions computed for object METEOR 2-8 DEB.

Target Orbit TCA Probability of collision Miss distance Type
ERS 1 SSO 2025-02-06 14:08:02 0.0001020678 899.0 (m) PAYLOAD
CZ-6A DEB SSO 2024-07-28 20:48:49 0.0001068138 202.0 (m) DEBRIS

Associated space launch

Second generation soviet meteorological satellite

METEOR 2-8 DEB was lifted into orbit during the mission ‘Tsiklon-3 | Meteor-2 8’, on board a Tsiklon-3 space rocket.

The launch took place on March 25, 1982, 9:50 a.m. from 32/1.

For more information about the launch, click the button.

Launch to space Tsiklon-3 | Meteor-2 8
Tsiklon-3 | Meteor-2 8

Agency: N/A

Status: Launch Successful

Launch date: March 25, 1982, 9:50 a.m. UTC

Rocket: Tsiklon-3

Launch pad: 32/1

Location: Plesetsk Cosmodrome, Russian Federation

...

Latest news about this satellite

There are no fresh news available about this satellite. Check back as we update our databases every day.


Newsletter sign-up

Weekly statistics, charts and insights to help you stay on top of the space industry.